This is the latest recevied weather packets stored in our database for station/object WC4PEM-10. If no packets are shown the sender has not sent any weather packets the latest 1 day(s).
| Time | Temp. | Humidity | Pressure | Rain* | Wind** | Luminosity | Snow |
|---|---|---|---|---|---|---|---|
| 1777992799 | 26.11° C | 68% | 1015.7 hPa | 0 mm | 5.36 m/s, 103° | - | - |
| 1777992798 | 26.11° C | 66% | 1015.8 hPa | 0 mm | 4.92 m/s, 137° | - | - |
| 1777992740 | 26.11° C | 66% | 1015.8 hPa | 0 mm | 4.92 m/s, 137° | - | - |
| 1777992688 | 26.11° C | 66% | 1015.8 hPa | 0 mm | 4.92 m/s, 137° | - | - |
| 1777992388 | 26.11° C | 67% | 1015.8 hPa | 0 mm | 5.36 m/s, 86° | - | - |
| 1777992088 | 26.11° C | 68% | 1015.7 hPa | 0 mm | 5.36 m/s, 103° | - | - |
| 1777991896 | 25.56° C | 69% | 1015.7 hPa | 0 mm | 4.92 m/s, 82° | - | - |
| 1777991788 | 25.56° C | 69% | 1015.7 hPa | 0 mm | 4.92 m/s, 82° | - | - |
| 1777991651 | 25.56° C | 70% | 1015.7 hPa | 0 mm | 4.92 m/s, 140° | - | - |
| 1777991488 | 25.56° C | 70% | 1015.7 hPa | 0 mm | 4.92 m/s, 140° | - | - |
| 1777991333 | 25.56° C | 70% | 1015.6 hPa | 0 mm | 4.47 m/s, 131° | - | - |
| 1777991188 | 25.56° C | 70% | 1015.5 hPa | 0 mm | 4.47 m/s, 141° | - | - |
| 1777991057 | 25.56° C | 71% | 1015.6 hPa | 0 mm | 4.47 m/s, 140° | - | - |
| 1777990888 | 25.56° C | 71% | 1015.6 hPa | 0 mm | 4.47 m/s, 140° | - | - |
| 1777990769 | 25.56° C | 70% | 1015.6 hPa | 0 mm | 4.47 m/s, 131° | - | - |
| 1777990588 | 25.56° C | 70% | 1015.6 hPa | 0 mm | 4.47 m/s, 131° | - | - |
| 1777990407 | 25° C | 72% | 1015.5 hPa | 0 mm | 4.92 m/s, 108° | - | - |
| 1777990288 | 25° C | 72% | 1015.5 hPa | 0 mm | 4.92 m/s, 108° | - | - |
| 1777990185 | 25° C | 73% | 1015.5 hPa | 0 mm | 5.36 m/s, 83° | - | - |
| 1777990104 | 25° C | 73% | 1015.5 hPa | 0 mm | 5.36 m/s, 83° | - | - |
| 1777989988 | 25° C | 73% | 1015.5 hPa | 0 mm | 5.36 m/s, 83° | - | - |
| 1777989902 | 25° C | 73% | 1015.6 hPa | 0 mm | 5.81 m/s, 84° | - | - |
| 1777989688 | 25° C | 73% | 1015.6 hPa | 0 mm | 5.81 m/s, 84° | - | - |
| 1777989388 | 24.44° C | 75% | 1015.7 hPa | 0 mm | 5.81 m/s, 93° | - | - |
| 1777989237 | 25° C | 74% | 1015.7 hPa | 0 mm | 5.36 m/s, 131° | - | - |
* Rain latest hour (hover to see other rain measurements)
** Current wind speed in m/s (hover to see current wind gust speed)